QPF
0.02 0.01 0.01 0.00 0.00 0.00 0.00 0.00 0.00 0.00 0.00 0.00 0.00 0.00 0.00 0.00 0.00 0.00 0.00 0.00 0.00 0.00 0.00 0.01 0.01 0.01 0.01 0.01 0.01 0.02 0.02 0.01 0.01 0.01 0.01 0.01 0.01 0.01 0.01 0.01 0.01 0.01 0.02 0.02 0.02 0.01 0.01 0.01 0.01
0.02 0.01 0.01 0.01 0.00 0.00 0.00 0.00 0.00 0.00 0.00 0.00 0.00 0.00 0.00 0.00 0.00 0.00 0.00 0.00 0.00 0.00 0.00 0.01 0.01 0.01 0.01 0.01 0.02 0.02 0.02 0.02 0.02 0.01 0.01 0.01 0.01 0.01 0.02 0.02 0.02 0.01 0.02 0.01 0.01 0.00 0.01 0.00 0.00
0.02 0.03 0.02 0.01 0.00 0.00 0.00 0.00 0.00 0.00 0.00 0.00 0.00 0.00 0.00 0.00 0.00 0.00 0.00 0.00 0.00 0.00 0.00 0.01 0.02 0.02 0.02 0.02 0.02 0.02 0.02 0.02 0.02 0.02 0.02 0.02 0.02 0.02 0.02 0.02 0.02 0.01 0.01 0.01 0.00 0.00 0.00 0.00 0.00
0.03 0.05 0.04 0.02 0.00 0.00 0.00 0.00 0.00 0.00 0.00 0.00 0.00 0.00 0.00 0.00 0.00 0.00 0.00 0.00 0.00 0.00 0.00 0.01 0.02 0.02 0.02 0.02 0.02 0.02 0.02 0.02 0.02 0.02 0.02 0.03 0.03 0.03 0.02 0.02 0.01 0.01 0.01 0.00 0.00 0.00 0.00 0.00 0.00
0.04 0.06 0.05 0.02 0.00 0.00 0.00 0.00 0.00 0.00 0.00 0.00 0.00 0.00 0.00 0.00 0.00 0.00 0.00 0.00 0.00 0.00 0.00 0.01 0.02 0.02 0.02 0.02 0.03 0.03 0.03 0.02 0.02 0.02 0.02 0.03 0.03 0.03 0.02 0.01 0.01 0.01 0.00 0.00 0.00 0.00 0.00 0.00 0.00
0.05 0.06 0.04 0.02 0.00 0.00 0.00 0.00 0.00 0.00 0.00 0.00 0.00 0.00 0.00 0.00 0.00 0.00 0.00 0.00 0.00 0.00 0.01 0.01 0.03 0.03 0.03 0.03 0.03 0.03 0.03 0.03 0.02 0.02 0.02 0.03 0.03 0.03 0.02 0.01 0.01 0.01 0.00 0.00 0.00 0.00 0.01 0.01 0.00
0.05 0.04 0.03 0.01 0.00 0.00 0.00 0.00 0.00 0.00 0.00 0.00 0.00 0.00 0.00 0.00 0.00 0.00 0.00 0.00 0.00 0.01 0.01 0.02 0.03 0.04 0.05 0.05 0.05 0.04 0.04 0.05 0.03 0.03 0.03 0.03 0.03 0.03 0.02 0.01 0.01 0.00 0.00 0.00 0.00 0.01 0.01 0.00 0.00
0.07 0.04 0.02 0.01 0.01 0.00 0.00 0.00 0.00 0.00 0.00 0.00 0.00 0.00 0.00 0.00 0.00 0.00 0.00 0.01 0.01 0.01 0.02 0.02 0.04 0.05 0.06 0.07 0.06 0.05 0.05 0.06 0.05 0.03 0.02 0.02 0.03 0.03 0.02 0.01 0.01 0.01 0.00 0.00 0.00 0.01 0.01 0.00 0.00
0.08 0.07 0.02 0.01 0.01 0.01 0.01 0.01 0.00 0.01 0.01 0.00 0.00 0.00 0.00 0.00 0.00 0.00 0.01 0.01 0.02 0.02 0.02 0.03 0.06 0.07 0.07 0.08 0.07 0.07 0.07 0.07 0.06 0.04 0.03 0.02 0.03 0.04 0.03 0.02 0.01 0.01 0.01 0.00 0.01 0.01 0.00 0.00 0.00
0.09 0.07 0.02 0.01 0.01 0.01 0.02 0.02 0.02 0.01 0.01 0.00 0.00 0.00 0.00 0.00 0.00 0.00 0.01 0.01 0.02 0.02 0.03 0.04 0.07 0.08 0.09 0.09 0.08 0.08 0.09 0.09 0.07 0.05 0.04 0.04 0.03 0.03 0.03 0.03 0.02 0.01 0.01 0.01 0.01 0.01 0.00 0.00 0.00
0.07 0.06 0.03 0.01 0.01 0.02 0.03 0.03 0.02 0.02 0.01 0.01 0.01 0.00 0.00 0.00 0.00 0.01 0.01 0.01 0.01 0.02 0.03 0.04 0.07 0.10 0.11 0.11 0.09 0.08 0.08 0.08 0.08 0.06 0.04 0.04 0.04 0.02 0.03 0.03 0.03 0.02 0.01 0.01 0.01 0.00 0.00 0.00 0.00
0.06 0.04 0.03 0.02 0.02 0.02 0.03 0.04 0.03 0.02 0.01 0.01 0.01 0.01 0.00 0.00 0.00 0.01 0.01 0.01 0.02 0.04 0.05 0.06 0.08 0.10 0.11 0.11 0.10 0.08 0.07 0.07 0.08 0.07 0.05 0.04 0.03 0.02 0.01 0.02 0.02 0.01 0.01 0.01 0.00 0.00 0.00 0.00 0.00
0.04 0.03 0.03 0.03 0.03 0.03 0.04 0.04 0.03 0.02 0.01 0.01 0.01 0.01 0.01 0.01 0.00 0.00 0.01 0.01 0.03 0.04 0.06 0.08 0.10 0.10 0.11 0.12 0.10 0.09 0.07 0.06 0.06 0.08 0.08 0.05 0.03 0.01 0.01 0.01 0.01 0.01 0.01 0.01 0.00 0.00 0.00 0.00 0.00
0.03 0.03 0.03 0.03 0.03 0.04 0.06 0.04 0.03 0.02 0.01 0.01 0.01 0.01 0.01 0.01 0.01 0.01 0.01 0.02 0.03 0.04 0.06 0.08 0.11 0.12 0.13 0.13 0.10 0.08 0.07 0.06 0.06 0.07 0.07 0.07 0.05 0.02 0.01 0.01 0.01 0.01 0.00 0.00 0.00 0.00 0.00 0.00 0.00
0.03 0.03 0.03 0.03 0.03 0.02 0.05 0.06 0.03 0.01 0.01 0.01 0.01 0.01 0.01 0.01 0.01 0.01 0.01 0.02 0.03 0.04 0.06 0.09 0.11 0.13 0.15 0.14 0.12 0.09 0.07 0.06 0.06 0.05 0.05 0.06 0.06 0.04 0.02 0.02 0.01 0.00 0.00 0.00 0.00 0.00 0.00 0.00 0.00
0.04 0.05 0.04 0.04 0.04 0.03 0.04 0.05 0.02 0.02 0.02 0.01 0.01 0.01 0.01 0.02 0.01 0.01 0.01 0.02 0.03 0.05 0.06 0.09 0.11 0.13 0.16 0.16 0.15 0.10 0.07 0.06 0.06 0.06 0.05 0.06 0.06 0.05 0.03 0.02 0.01 0.01 0.00 0.00 0.00 0.00 0.00 0.00 0.00
0.07 0.07 0.04 0.03 0.05 0.05 0.05 0.03 0.01 0.02 0.02 0.02 0.01 0.01 0.01 0.01 0.01 0.01 0.01 0.02 0.03 0.05 0.07 0.09 0.10 0.12 0.16 0.18 0.18 0.13 0.08 0.05 0.06 0.06 0.05 0.05 0.06 0.07 0.05 0.03 0.02 0.01 0.00 0.00 0.00 0.00 0.00 0.00 0.00
0.06 0.05 0.04 0.03 0.04 0.05 0.04 0.03 0.02 0.02 0.02 0.02 0.01 0.01 0.00 0.00 0.01 0.01 0.02 0.02 0.03 0.06 0.09 0.11 0.11 0.12 0.17 0.20 0.20 0.16 0.11 0.07 0.05 0.05 0.05 0.05 0.06 0.07 0.07 0.05 0.03 0.01 0.00 0.00 0.00 0.00 0.00 0.00 0.00
0.05 0.05 0.04 0.03 0.02 0.04 0.03 0.02 0.01 0.02 0.01 0.01 0.01 0.01 0.00 0.00 0.00 0.01 0.02 0.03 0.04 0.05 0.09 0.12 0.12 0.14 0.19 0.22 0.21 0.17 0.11 0.08 0.05 0.04 0.04 0.04 0.05 0.06 0.06 0.05 0.04 0.02 0.01 0.00 0.00 0.00 0.00 0.00 0.00
0.05 0.06 0.05 0.03 0.02 0.03 0.03 0.02 0.01 0.02 0.01 0.01 0.01 0.01 0.01 0.00 0.00 0.01 0.01 0.03 0.04 0.04 0.06 0.11 0.12 0.14 0.18 0.22 0.19 0.16 0.11 0.08 0.05 0.03 0.04 0.04 0.05 0.06 0.06 0.05 0.03 0.02 0.01 0.00 0.00 0.00 0.00 0.00 0.00
0.04 0.04 0.04 0.04 0.04 0.04 0.04 0.03 0.02 0.01 0.01 0.01 0.01 0.01 0.01 0.01 0.00 0.00 0.01 0.02 0.04 0.05 0.06 0.08 0.11 0.14 0.17 0.23 0.24 0.20 0.19 0.14 0.08 0.04 0.05 0.05 0.05 0.05 0.07 0.05 0.03 0.02 0.01 0.00 0.00 0.00 0.00 0.00 0.00
0.04 0.03 0.02 0.02 0.04 0.04 0.04 0.05 0.01 0.01 0.01 0.01 0.01 0.01 0.02 0.01 0.00 0.00 0.01 0.02 0.03 0.05 0.07 0.08 0.10 0.15 0.15 0.21 0.28 0.20 0.17 0.16 0.10 0.04 0.04 0.06 0.07 0.06 0.05 0.06 0.04 0.02 0.01 0.00 0.00 0.00 0.00 0.00 0.00
0.02 0.02 0.02 0.02 0.03 0.04 0.03 0.03 0.02 0.01 0.02 0.01 0.01 0.01 0.01 0.01 0.00 0.00 0.00 0.01 0.03 0.05 0.08 0.09 0.10 0.15 0.16 0.17 0.24 0.23 0.16 0.13 0.11 0.06 0.04 0.06 0.07 0.08 0.05 0.05 0.05 0.03 0.01 0.00 0.00 0.00 0.00 0.00 0.00
0.01 0.02 0.02 0.02 0.03 0.03 0.02 0.02 0.03 0.04 0.04 0.02 0.01 0.01 0.01 0.01 0.01 0.00 0.00 0.01 0.03 0.05 0.08 0.10 0.11 0.14 0.15 0.16 0.20 0.23 0.19 0.13 0.12 0.09 0.05 0.05 0.07 0.07 0.07 0.04 0.04 0.03 0.01 0.01 0.00 0.00 0.00 0.00 0.00
0.02 0.05 0.04 0.03 0.03 0.02 0.01 0.02 0.05 0.06 0.05 0.04 0.03 0.02 0.01 0.01 0.01 0.01 0.00 0.01 0.03 0.04 0.07 0.10 0.11 0.13 0.14 0.13 0.16 0.17 0.20 0.17 0.12 0.10 0.06 0.04 0.05 0.06 0.05 0.04 0.03 0.02 0.01 0.01 0.00 0.00 0.00 0.00 0.00
0.03 0.05 0.06 0.05 0.03 0.01 0.01 0.03 0.06 0.05 0.03 0.04 0.03 0.01 0.01 0.01 0.01 0.01 0.01 0.01 0.02 0.03 0.06 0.09 0.10 0.11 0.12 0.11 0.12 0.12 0.16 0.20 0.15 0.11 0.08 0.05 0.04 0.04 0.04 0.04 0.03 0.02 0.01 0.00 0.00 0.00 0.00 0.00 0.00
0.03 0.04 0.05 0.06 0.03 0.02 0.02 0.03 0.04 0.02 0.02 0.02 0.02 0.02 0.01 0.01 0.01 0.01 0.01 0.02 0.02 0.02 0.04 0.08 0.09 0.09 0.09 0.10 0.10 0.10 0.11 0.16 0.19 0.13 0.09 0.07 0.06 0.06 0.05 0.04 0.03 0.02 0.01 0.01 0.00 0.00 0.00 0.00 0.00
0.01 0.02 0.04 0.05 0.04 0.03 0.02 0.04 0.05 0.03 0.03 0.03 0.03 0.03 0.02 0.02 0.01 0.01 0.01 0.02 0.02 0.02 0.03 0.07 0.10 0.08 0.07 0.08 0.11 0.10 0.08 0.10 0.15 0.17 0.12 0.08 0.07 0.07 0.08 0.07 0.05 0.04 0.02 0.01 0.01 0.00 0.00 0.00 0.00
0.01 0.02 0.03 0.04 0.03 0.04 0.03 0.05 0.06 0.05 0.05 0.06 0.05 0.04 0.02 0.02 0.02 0.02 0.02 0.02 0.02 0.02 0.03 0.06 0.11 0.08 0.06 0.06 0.08 0.10 0.08 0.08 0.10 0.15 0.13 0.09 0.06 0.06 0.07 0.08 0.06 0.05 0.04 0.02 0.01 0.01 0.00 0.00 0.00
0.01 0.01 0.03 0.05 0.03 0.03 0.03 0.04 0.03 0.03 0.04 0.05 0.05 0.04 0.02 0.01 0.01 0.01 0.01 0.02 0.03 0.04 0.04 0.06 0.10 0.08 0.05 0.06 0.06 0.08 0.09 0.08 0.09 0.10 0.13 0.12 0.08 0.05 0.04 0.05 0.06 0.06 0.04 0.03 0.02 0.01 0.00 0.00 0.00
MSLP
1014.05 1013.88 1013.62 1013.24 1012.72 1012.06 1011.32 1010.53 1009.78 1009.13 1008.60 1008.19 1007.86 1007.57 1007.22 1006.78 1006.22 1005.54 1004.82 1004.13 1003.57 1003.22 1003.12 1003.28 1003.67 1004.20 1004.79 1005.36 1005.87 1006.29 1006.65 1006.98 1007.32 1007.72 1008.19 1008.71 1009.27 1009.81 1010.31 1010.74 1011.11 1011.43 1011.73 1012.05 1012.40 1012.79 1013.19 1013.57 1013.90
1014.13 1013.82 1013.40 1012.87 1012.21 1011.45 1010.64 1009.83 1009.08 1008.44 1007.92 1007.52 1007.19 1006.89 1006.54 1006.11 1005.57 1004.96 1004.32 1003.73 1003.27 1003.01 1002.98 1003.18 1003.59 1004.12 1004.70 1005.27 1005.78 1006.22 1006.61 1006.98 1007.36 1007.79 1008.28 1008.81 1009.35 1009.87 1010.35 1010.76 1011.12 1011.45 1011.78 1012.15 1012.55 1013.00 1013.46 1013.90 1014.28
1014.14 1013.68 1013.11 1012.43 1011.66 1010.85 1010.02 1009.23 1008.53 1007.94 1007.46 1007.08 1006.74 1006.41 1006.04 1005.59 1005.06 1004.47 1003.89 1003.38 1003.00 1002.82 1002.85 1003.09 1003.51 1004.03 1004.60 1005.16 1005.68 1006.14 1006.56 1006.97 1007.40 1007.86 1008.37 1008.90 1009.44 1009.94 1010.40 1010.81 1011.17 1011.52 1011.89 1012.29 1012.75 1013.26 1013.77 1014.26 1014.68
1014.14 1013.54 1012.83 1012.05 1011.21 1010.37 1009.57 1008.85 1008.23 1007.72 1007.30 1006.95 1006.61 1006.24 1005.82 1005.33 1004.77 1004.19 1003.63 1003.17 1002.85 1002.71 1002.78 1003.03 1003.44 1003.95 1004.50 1005.04 1005.56 1006.03 1006.49 1006.94 1007.41 1007.91 1008.44 1008.99 1009.53 1010.04 1010.50 1010.92 1011.30 1011.68 1012.07 1012.52 1013.01 1013.55 1014.10 1014.62 1015.07
1014.16 1013.46 1012.66 1011.81 1010.96 1010.14 1009.41 1008.79 1008.27 1007.85 1007.50 1007.17 1006.82 1006.41 1005.93 1005.38 1004.78 1004.17 1003.61 1003.15 1002.85 1002.72 1002.79 1003.02 1003.40 1003.86 1004.37 1004.89 1005.40 1005.89 1006.38 1006.87 1007.39 1007.93 1008.49 1009.06 1009.62 1010.15 1010.64 1011.09 1011.51 1011.92 1012.35 1012.82 1013.33 1013.88 1014.43 1014.95 1015.41
1014.25 1013.49 1012.66 1011.80 1010.97 1010.22 1009.58 1009.06 1008.65 1008.33 1008.03 1007.72 1007.35 1006.89 1006.35 1005.73 1005.07 1004.42 1003.83 1003.35 1003.02 1002.87 1002.88 1003.06 1003.36 1003.76 1004.21 1004.70 1005.20 1005.71 1006.23 1006.77 1007.33 1007.92 1008.52 1009.13 1009.72 1010.29 1010.81 1011.31 1011.77 1012.22 1012.68 1013.16 1013.67 1014.20 1014.72 1015.22 1015.66
1014.40 1013.65 1012.83 1012.01 1011.24 1010.57 1010.03 1009.61 1009.29 1009.03 1008.77 1008.46 1008.07 1007.57 1006.97 1006.29 1005.57 1004.87 1004.24 1003.72 1003.33 1003.11 1003.04 1003.11 1003.32 1003.62 1004.01 1004.46 1004.95 1005.48 1006.04 1006.64 1007.25 1007.89 1008.53 1009.18 1009.81 1010.42 1010.99 1011.54 1012.06 1012.55 1013.04 1013.52 1014.01 1014.49 1014.96 1015.41 1015.81
1014.60 1013.89 1013.13 1012.37 1011.69 1011.11 1010.65 1010.30 1010.04 1009.81 1009.56 1009.23 1008.80 1008.26 1007.61 1006.89 1006.14 1005.41 1004.74 1004.16 1003.70 1003.38 1003.20 1003.15 1003.23 1003.43 1003.74 1004.14 1004.64 1005.20 1005.81 1006.46 1007.14 1007.83 1008.53 1009.21 1009.87 1010.52 1011.14 1011.74 1012.31 1012.85 1013.37 1013.85 1014.30 1014.74 1015.14 1015.52 1015.87
1014.79 1014.15 1013.47 1012.80 1012.19 1011.67 1011.27 1010.95 1010.70 1010.46 1010.18 1009.82 1009.35 1008.78 1008.11 1007.38 1006.62 1005.88 1005.18 1004.56 1004.03 1003.61 1003.30 1003.11 1003.06 1003.15 1003.38 1003.75 1004.24 1004.84 1005.52 1006.25 1007.00 1007.75 1008.49 1009.21 1009.90 1010.58 1011.24 1011.89 1012.50 1013.09 1013.63 1014.12 1014.55 1014.93 1015.28 1015.59 1015.88
1014.93 1014.36 1013.76 1013.16 1012.60 1012.13 1011.73 1011.40 1011.11 1010.81 1010.48 1010.06 1009.55 1008.95 1008.28 1007.57 1006.84 1006.13 1005.44 1004.81 1004.23 1003.72 1003.29 1002.97 1002.79 1002.76 1002.91 1003.25 1003.76 1004.41 1005.16 1005.98 1006.81 1007.63 1008.41 1009.16 1009.88 1010.58 1011.27 1011.95 1012.61 1013.23 1013.81 1014.31 1014.74 1015.10 1015.39 1015.65 1015.89
1014.99 1014.48 1013.93 1013.37 1012.83 1012.34 1011.90 1011.51 1011.13 1010.75 1010.32 1009.84 1009.28 1008.67 1008.02 1007.36 1006.70 1006.05 1005.42 1004.81 1004.21 1003.65 1003.13 1002.70 1002.40 1002.27 1002.35 1002.66 1003.18 1003.89 1004.72 1005.63 1006.55 1007.45 1008.29 1009.07 1009.81 1010.52 1011.23 1011.93 1012.62 1013.29 1013.91 1014.45 1014.89 1015.25 1015.52 1015.74 1015.94
1014.96 1014.49 1013.95 1013.39 1012.82 1012.27 1011.74 1011.24 1010.74 1010.23 1009.69 1009.12 1008.52 1007.91 1007.29 1006.70 1006.13 1005.59 1005.05 1004.51 1003.95 1003.37 1002.81 1002.30 1001.90 1001.69 1001.71 1001.99 1002.53 1003.28 1004.20 1005.20 1006.22 1007.20 1008.10 1008.93 1009.69 1010.41 1011.13 1011.85 1012.57 1013.28 1013.94 1014.52 1015.01 1015.39 1015.67 1015.89 1016.07
1014.88 1014.40 1013.84 1013.22 1012.57 1011.91 1011.26 1010.61 1009.97 1009.32 1008.65 1007.99 1007.33 1006.71 1006.13 1005.61 1005.16 1004.75 1004.34 1003.91 1003.44 1002.90 1002.34 1001.80 1001.35 1001.08 1001.04 1001.29 1001.83 1002.62 1003.60 1004.69 1005.81 1006.87 1007.85 1008.73 1009.53 1010.27 1011.00 1011.73 1012.47 1013.21 1013.92 1014.56 1015.10 1015.53 1015.85 1016.09 1016.27
1014.80 1014.26 1013.62 1012.91 1012.13 1011.34 1010.53 1009.73 1008.93 1008.13 1007.34 1006.57 1005.85 1005.20 1004.64 1004.20 1003.85 1003.57 1003.32 1003.05 1002.70 1002.27 1001.77 1001.25 1000.79 1000.47 1000.40 1000.61 1001.13 1001.93 1002.96 1004.13 1005.33 1006.49 1007.55 1008.50 1009.35 1010.12 1010.86 1011.60 1012.35 1013.12 1013.86 1014.56 1015.16 1015.66 1016.04 1016.31 1016.52
1014.76 1014.13 1013.38 1012.53 1011.61 1010.66 1009.70 1008.74 1007.79 1006.85 1005.94 1005.06 1004.26 1003.56 1003.00 1002.59 1002.33 1002.18 1002.09 1001.98 1001.80 1001.52 1001.14 1000.69 1000.25 999.93 999.82 999.99 1000.48 1001.27 1002.32 1003.53 1004.81 1006.05 1007.21 1008.24 1009.15 1009.97 1010.73 1011.48 1012.24 1013.02 1013.79 1014.53 1015.19 1015.74 1016.19 1016.52 1016.77
1014.78 1014.04 1013.14 1012.14 1011.07 1009.97 1008.87 1007.78 1006.71 1005.65 1004.62 1003.64 1002.74 1001.97 1001.36 1000.95 1000.74 1000.68 1000.73 1000.79 1000.80 1000.70 1000.48 1000.15 999.78 999.48 999.35 999.48 999.92 1000.67 1001.70 1002.94 1004.27 1005.60 1006.84 1007.97 1008.95 1009.82 1010.62 1011.38 1012.15 1012.92 1013.70 1014.46 1015.15 1015.77 1016.27 1016.66 1016.95
1014.85 1013.97 1012.93 1011.78 1010.57 1009.34 1008.14 1006.96 1005.80 1004.66 1003.54 1002.46 1001.46 1000.58 999.89 999.43 999.21 999.20 999.35 999.56 999.76 999.85 999.81 999.63 999.37 999.12 998.99 999.08 999.46 1000.16 1001.16 1002.38 1003.74 1005.13 1006.46 1007.68 1008.75 1009.69 1010.52 1011.30 1012.06 1012.82 1013.59 1014.35 1015.06 1015.71 1016.25 1016.69 1017.04
1014.94 1013.93 1012.74 1011.45 1010.13 1008.82 1007.55 1006.33 1005.14 1003.96 1002.78 1001.62 1000.51 999.52 998.71 998.14 997.85 997.83 998.03 998.35 998.70 998.98 999.13 999.12 998.99 998.82 998.72 998.78 999.11 999.74 1000.68 1001.88 1003.25 1004.68 1006.08 1007.38 1008.54 1009.54 1010.43 1011.22 1011.97 1012.72 1013.46 1014.20 1014.91 1015.57 1016.14 1016.63 1017.01
1015.00 1013.86 1012.55 1011.16 1009.76 1008.41 1007.13 1005.91 1004.74 1003.57 1002.37 1001.15 999.95 998.83 997.88 997.17 996.77 996.67 996.85 997.22 997.67 998.10 998.42 998.58 998.59 998.52 998.46 998.53 998.82 999.39 1000.27 1001.43 1002.79 1004.25 1005.70 1007.07 1008.30 1009.38 1010.31 1011.13 1011.87 1012.60 1013.31 1014.01 1014.71 1015.36 1015.95 1016.46 1016.88
1015.01 1013.75 1012.35 1010.88 1009.45 1008.10 1006.85 1005.70 1004.58 1003.46 1002.29 1001.05 999.78 998.55 997.45 996.57 996.00 995.77 995.87 996.21 996.70 997.22 997.66 997.97 998.12 998.15 998.17 998.26 998.53 999.07 999.91 1001.03 1002.37 1003.83 1005.32 1006.75 1008.04 1009.18 1010.15 1010.99 1011.74 1012.44 1013.13 1013.81 1014.48 1015.12 1015.72 1016.24 1016.69
1014.96 1013.62 1012.15 1010.65 1009.21 1007.89 1006.72 1005.65 1004.64 1003.61 1002.49 1001.27 999.97 998.65 997.41 996.35 995.60 995.19 995.13 995.37 995.82 996.35 996.86 997.26 997.52 997.66 997.76 997.90 998.21 998.74 999.56 1000.65 1001.98 1003.44 1004.95 1006.41 1007.75 1008.93 1009.94 1010.81 1011.56 1012.26 1012.92 1013.58 1014.23 1014.87 1015.47 1016.01 1016.47
1014.92 1013.52 1012.01 1010.50 1009.08 1007.82 1006.73 1005.76 1004.86 1003.94 1002.92 1001.75 1000.45 999.07 997.72 996.51 995.55 994.93 994.67 994.74 995.05 995.51 996.00 996.44 996.77 997.00 997.19 997.42 997.78 998.36 999.19 1000.29 1001.62 1003.09 1004.60 1006.08 1007.44 1008.65 1009.69 1010.57 1011.33 1012.03 1012.69 1013.34 1013.99 1014.62 1015.23 1015.78 1016.26
1014.96 1013.53 1012.01 1010.50 1009.12 1007.91 1006.89 1006.02 1005.23 1004.42 1003.50 1002.40 1001.14 999.75 998.32 996.97 995.83 994.99 994.49 994.33 994.44 994.75 995.14 995.54 995.89 996.18 996.47 996.80 997.25 997.91 998.81 999.94 1001.29 1002.76 1004.28 1005.76 1007.13 1008.34 1009.39 1010.28 1011.06 1011.77 1012.43 1013.09 1013.75 1014.39 1015.00 1015.57 1016.06
1015.17 1013.73 1012.22 1010.74 1009.38 1008.21 1007.24 1006.44 1005.73 1005.00 1004.17 1003.16 1001.95 1000.58 999.12 997.69 996.39 995.34 994.59 994.16 994.02 994.10 994.32 994.62 994.93 995.26 995.61 996.05 996.63 997.40 998.39 999.60 1000.99 1002.48 1004.00 1005.47 1006.83 1008.03 1009.07 1009.96 1010.74 1011.46 1012.14 1012.82 1013.49 1014.15 1014.78 1015.36 1015.86
1015.59 1014.18 1012.70 1011.25 1009.91 1008.75 1007.80 1007.01 1006.33 1005.66 1004.89 1003.95 1002.82 1001.49 1000.04 998.56 997.14 995.91 994.93 994.23 993.80 993.62 993.61 993.75 993.98 994.29 994.70 995.24 995.94 996.85 997.96 999.27 1000.72 1002.25 1003.77 1005.22 1006.55 1007.72 1008.74 1009.61 1010.39 1011.11 1011.81 1012.51 1013.20 1013.89 1014.53 1015.12 1015.63
1016.21 1014.86 1013.44 1012.02 1010.69 1009.53 1008.55 1007.73 1007.03 1006.35 1005.61 1004.72 1003.65 1002.39 1000.98 999.49 998.01 996.65 995.46 994.51 993.80 993.33 993.08 993.01 993.11 993.37 993.81 994.43 995.26 996.30 997.55 998.97 1000.49 1002.06 1003.59 1005.02 1006.31 1007.43 1008.41 1009.25 1010.01 1010.73 1011.44 1012.15 1012.86 1013.56 1014.23 1014.83 1015.34
1016.97 1015.72 1014.37 1013.00 1011.68 1010.49 1009.45 1008.56 1007.78 1007.05 1006.29 1005.41 1004.39 1003.20 1001.85 1000.40 998.91 997.46 996.13 994.97 994.01 993.28 992.77 992.48 992.43 992.61 993.04 993.72 994.64 995.81 997.18 998.70 1000.31 1001.91 1003.44 1004.84 1006.08 1007.15 1008.07 1008.88 1009.61 1010.31 1011.01 1011.73 1012.46 1013.17 1013.85 1014.46 1014.97
1017.75 1016.63 1015.38 1014.07 1012.77 1011.54 1010.42 1009.43 1008.54 1007.71 1006.89 1006.00 1005.00 1003.86 1002.59 1001.21 999.75 998.29 996.87 995.57 994.42 993.46 992.72 992.22 992.01 992.09 992.48 993.17 994.16 995.42 996.88 998.49 1000.15 1001.78 1003.31 1004.68 1005.87 1006.88 1007.74 1008.49 1009.18 1009.86 1010.55 1011.27 1012.00 1012.72 1013.40 1014.01 1014.53
1018.42 1017.44 1016.31 1015.09 1013.82 1012.57 1011.38 1010.28 1009.26 1008.31 1007.39 1006.45 1005.46 1004.37 1003.17 1001.87 1000.49 999.07 997.64 996.27 994.99 993.87 992.95 992.28 991.91 991.87 992.19 992.86 993.87 995.16 996.68 998.33 1000.02 1001.66 1003.17 1004.50 1005.64 1006.59 1007.39 1008.09 1008.74 1009.39 1010.07 1010.77 1011.50 1012.23 1012.91 1013.53 1014.05
1018.86 1018.03 1017.05 1015.93 1014.72 1013.47 1012.23 1011.03 1009.90 1008.83 1007.80 1006.80 1005.78 1004.72 1003.60 1002.40 1001.12 999.77 998.40 997.02 995.70 994.49 993.44 992.64 992.13 991.98 992.21 992.82 993.79 995.07 996.59 998.24 999.92 1001.54 1003.01 1004.30 1005.38 1006.28 1007.03 1007.69 1008.31 1008.93 1009.59 1010.29 1011.02 1011.74 1012.43 1013.05 1013.58
Thickness
5698 5700 5701 5696 5690 5692 5708 5726 5731 5730 5733 5743 5745 5744 5747 5751 5750 5754 5775 5783 5785 5784 5783 5777 5776 5774 5773 5772 5771 5769 5768 5766 5764 5763 5761 5759 5758 5756 5754 5753 5751 5749 5747 5745 5743 5742 5740 5737 5735
5691 5692 5689 5685 5682 5691 5711 5724 5723 5727 5734 5736 5735 5737 5740 5748 5762 5767 5771 5773 5777 5778 5777 5773 5770 5769 5767 5766 5765 5764 5763 5762 5760 5758 5757 5755 5753 5752 5750 5748 5746 5744 5742 5740 5739 5737 5735 5733 5730
5683 5682 5677 5675 5682 5699 5714 5718 5720 5725 5729 5727 5727 5732 5735 5745 5755 5760 5763 5766 5769 5770 5770 5767 5764 5763 5762 5760 5760 5758 5757 5756 5755 5754 5752 5750 5748 5747 5745 5744 5742 5740 5738 5735 5734 5732 5730 5728 5726
5672 5667 5666 5667 5686 5703 5708 5712 5710 5712 5716 5718 5718 5721 5733 5743 5748 5753 5756 5758 5760 5762 5763 5761 5757 5757 5756 5755 5754 5752 5752 5751 5750 5749 5747 5745 5744 5742 5740 5738 5736 5734 5733 5730 5728 5727 5725 5723 5721
5660 5656 5652 5663 5682 5695 5701 5701 5698 5698 5704 5709 5708 5713 5723 5735 5740 5743 5746 5749 5751 5753 5755 5753 5750 5750 5749 5749 5748 5747 5746 5745 5744 5743 5741 5740 5739 5737 5735 5733 5731 5729 5727 5725 5723 5722 5720 5718 5716
5643 5645 5645 5662 5677 5684 5688 5688 5684 5685 5692 5697 5697 5701 5714 5725 5727 5731 5735 5738 5742 5744 5745 5745 5743 5743 5742 5742 5741 5740 5740 5739 5738 5737 5736 5734 5733 5731 5729 5727 5725 5724 5722 5720 5718 5716 5714 5713 5711
5631 5631 5641 5654 5662 5668 5674 5675 5671 5673 5678 5684 5688 5689 5703 5712 5716 5719 5723 5727 5730 5733 5735 5737 5736 5736 5735 5735 5735 5734 5733 5732 5732 5731 5729 5728 5727 5725 5723 5721 5720 5718 5716 5714 5713 5711 5709 5707 5705
5620 5618 5627 5636 5640 5650 5657 5657 5657 5657 5664 5673 5674 5676 5687 5697 5701 5705 5709 5714 5717 5721 5724 5727 5730 5730 5730 5729 5728 5728 5727 5726 5725 5724 5723 5721 5720 5718 5717 5716 5714 5712 5711 5709 5707 5706 5704 5702 5700
5602 5599 5615 5623 5624 5631 5635 5633 5639 5644 5647 5653 5659 5667 5674 5679 5683 5687 5692 5697 5703 5708 5713 5718 5722 5724 5725 5724 5722 5721 5720 5719 5718 5717 5716 5715 5714 5712 5710 5710 5708 5707 5705 5703 5702 5700 5698 5696 5694
5585 5590 5605 5608 5608 5608 5609 5609 5615 5620 5627 5635 5642 5649 5655 5659 5665 5672 5678 5684 5691 5697 5703 5709 5713 5716 5718 5718 5716 5715 5714 5713 5713 5712 5710 5710 5709 5707 5706 5702 5701 5700 5699 5697 5695 5694 5692 5691 5690
5574 5578 5585 5585 5585 5584 5585 5589 5594 5597 5608 5619 5625 5632 5636 5641 5649 5658 5667 5675 5682 5689 5694 5700 5704 5708 5710 5710 5710 5710 5709 5708 5708 5707 5706 5705 5703 5701 5699 5697 5694 5694 5693 5692 5689 5688 5688 5688 5686
5557 5562 5562 5562 5562 5561 5564 5570 5576 5582 5593 5603 5609 5615 5619 5626 5635 5645 5654 5663 5671 5677 5683 5690 5695 5698 5701 5703 5704 5704 5704 5704 5703 5702 5701 5700 5698 5696 5695 5693 5691 5689 5688 5687 5686 5685 5684 5683 5681
5542 5544 5543 5543 5542 5543 5545 5551 5559 5569 5578 5584 5591 5596 5603 5612 5621 5631 5641 5650 5659 5665 5673 5679 5685 5689 5692 5694 5696 5697 5698 5698 5698 5696 5696 5695 5693 5691 5690 5688 5686 5685 5684 5682 5681 5680 5679 5678 5677
5529 5527 5528 5528 5528 5530 5530 5538 5543 5559 5564 5568 5574 5582 5590 5598 5607 5616 5626 5636 5646 5655 5662 5669 5675 5680 5683 5686 5689 5691 5692 5693 5692 5690 5690 5689 5688 5686 5684 5683 5681 5680 5678 5677 5676 5676 5674 5673 5671
5512 5509 5516 5521 5520 5521 5517 5526 5538 5549 5548 5552 5560 5570 5578 5586 5595 5604 5614 5625 5636 5645 5653 5659 5665 5671 5676 5679 5682 5685 5685 5685 5685 5684 5683 5683 5682 5681 5679 5678 5676 5674 5673 5671 5671 5670 5669 5667 5666
5500 5499 5506 5518 5512 5510 5502 5517 5536 5537 5535 5541 5549 5558 5567 5577 5585 5595 5605 5614 5625 5635 5643 5650 5656 5663 5668 5672 5675 5678 5679 5679 5678 5677 5677 5676 5676 5675 5674 5673 5671 5669 5667 5666 5666 5665 5664 5662 5661
5495 5494 5499 5507 5506 5500 5496 5509 5528 5528 5528 5533 5541 5549 5559 5568 5577 5587 5596 5606 5616 5626 5634 5641 5648 5655 5660 5665 5667 5671 5672 5672 5672 5671 5671 5670 5670 5670 5669 5668 5666 5663 5662 5661 5660 5660 5660 5658 5656
5486 5486 5489 5494 5500 5495 5496 5506 5519 5520 5521 5527 5534 5541 5550 5560 5571 5579 5588 5598 5608 5618 5626 5633 5640 5647 5652 5656 5659 5662 5664 5665 5666 5667 5666 5665 5665 5665 5664 5663 5661 5659 5658 5657 5656 5655 5654 5653 5650
5473 5473 5477 5490 5493 5489 5494 5502 5513 5515 5517 5521 5528 5536 5545 5555 5565 5572 5580 5589 5599 5609 5618 5626 5632 5639 5644 5648 5652 5655 5657 5659 5661 5661 5662 5661 5661 5660 5659 5659 5657 5655 5655 5653 5652 5651 5648 5646 5645
5469 5468 5476 5487 5488 5483 5489 5499 5509 5511 5513 5516 5520 5528 5537 5547 5556 5564 5573 5583 5592 5602 5611 5620 5627 5633 5639 5644 5647 5652 5653 5655 5656 5656 5656 5657 5656 5655 5655 5655 5653 5652 5650 5649 5648 5646 5644 5642 5640
5468 5466 5469 5471 5477 5481 5481 5496 5511 5514 5514 5515 5518 5522 5531 5538 5547 5558 5567 5577 5586 5595 5605 5614 5622 5627 5633 5639 5641 5643 5644 5645 5647 5649 5651 5653 5653 5652 5651 5651 5650 5649 5647 5646 5644 5642 5641 5639 5636
5465 5470 5464 5463 5462 5472 5474 5479 5506 5507 5508 5509 5513 5519 5525 5532 5541 5551 5560 5570 5580 5589 5598 5607 5615 5622 5628 5633 5636 5640 5642 5644 5647 5649 5649 5648 5648 5648 5648 5647 5647 5646 5645 5643 5641 5639 5638 5636 5633
5460 5462 5460 5460 5459 5460 5476 5470 5497 5502 5499 5501 5506 5512 5518 5526 5534 5544 5554 5564 5575 5583 5591 5601 5610 5617 5623 5628 5632 5637 5640 5643 5643 5643 5644 5644 5644 5644 5644 5644 5643 5642 5642 5640 5639 5636 5635 5634 5632
5455 5457 5465 5465 5462 5460 5478 5475 5491 5495 5490 5493 5499 5505 5511 5520 5529 5539 5549 5558 5567 5575 5584 5594 5603 5611 5618 5623 5628 5634 5638 5639 5639 5639 5640 5640 5640 5640 5641 5641 5640 5640 5639 5638 5636 5633 5632 5631 5630
5449 5447 5457 5462 5464 5472 5481 5475 5484 5484 5482 5484 5489 5496 5504 5513 5521 5531 5540 5549 5559 5568 5577 5586 5596 5604 5613 5619 5624 5630 5635 5636 5637 5637 5638 5638 5638 5639 5639 5639 5638 5638 5636 5635 5632 5630 5629 5628 5626
5439 5436 5436 5442 5460 5473 5477 5476 5482 5477 5477 5479 5483 5489 5496 5505 5513 5522 5531 5541 5552 5562 5570 5580 5590 5599 5607 5614 5620 5625 5630 5633 5635 5635 5637 5638 5639 5639 5638 5637 5636 5635 5634 5632 5630 5628 5626 5625 5623
5431 5435 5432 5428 5441 5447 5471 5477 5479 5476 5475 5476 5478 5482 5487 5497 5505 5513 5522 5533 5544 5555 5565 5573 5584 5593 5602 5609 5614 5619 5624 5628 5632 5632 5634 5635 5636 5637 5636 5634 5633 5632 5631 5629 5627 5626 5624 5622 5621
5430 5430 5426 5424 5430 5448 5465 5470 5470 5466 5465 5468 5470 5473 5479 5488 5496 5505 5515 5525 5536 5548 5558 5568 5577 5588 5597 5604 5610 5616 5620 5625 5628 5628 5631 5633 5634 5634 5633 5632 5631 5629 5629 5627 5625 5624 5622 5619 5617
5421 5419 5416 5420 5420 5430 5447 5466 5463 5457 5457 5458 5461 5465 5470 5479 5487 5497 5508 5518 5528 5539 5550 5561 5572 5582 5590 5599 5606 5611 5616 5620 5623 5625 5628 5630 5630 5631 5631 5630 5629 5627 5626 5625 5623 5621 5620 5617 5615
5415 5413 5410 5407 5412 5418 5428 5452 5459 5455 5453 5452 5455 5459 5465 5472 5481 5491 5501 5511 5523 5533 5543 5553 5564 5575 5584 5593 5600 5606 5612 5616 5619 5622 5624 5626 5627 5629 5629 5627 5625 5625 5624 5623 5622 5620 5617 5615 5613